Regional Weather Roundup
Issued by NWS

Home | Current Version | Previous Version | Text Only | Print | Product List | Glossary On
Versions: 1 2 3 4 5 6 7 8 9 10 11 12 13 14 15 16 17 18 19 20 21 22 23 24 25 26 27 28 29 30 31 32 33 34 35 36 37 38 39 40 41 42 43 44 45 46 47 48 49 50
000
ASUS43 KLOT 282021
RWRIL

ILLINOIS REGIONAL WEATHER ROUNDUP
NATIONAL WEATHER SERVICE CHICAGO/ROMEOVILLE IL
300 PM CDT SAT MAR 28 2015

NOTE: "FAIR" INDICATES FEW OR NO CLOUDS BELOW 12,000 FEET WITH NO
SIGNIFICANT WEATHER AND/OR OBSTRUCTIONS TO VISIBILITY.

* THESE STATIONS ARE NOT UNDER NWS QUALITY CONTROL. THEY ALSO MAY NOT
  REPORT WEATHER SUCH AS PRECIPITATION OR FOG.

ILZ001-002-007-009-015-016-024-282100-
NORTHWEST ILLINOIS

CITY           SKY/WX    TMP DP  RH WIND       PRES   REMARKS
MOLINE         SUNNY     41  10  28 S9        30.29F
STERLING*      SUNNY     41  16  36 SE7       30.30F
SAVANNA*       SUNNY     40  11  30 W8        30.29F
$$

ILZ003-004-008-010-011-017-018-282100-
NORTH CENTRAL ILLINOIS

CITY           SKY/WX    TMP DP  RH WIND       PRES   REMARKS
ROCKFORD       SUNNY     39  10  30 VRB3      30.31F
FREEPORT*      SUNNY     38  13  36 S9        30.31F WCI  31
ROCHELLE*      SUNNY     36  14  40 SW5       30.30F WCI  32
DE KALB*       SUNNY     36  11  36 N3        30.30F
PERU*          SUNNY     39  10  29 W3        30.31F
$$

ILZ005-006-012>014-019>023-282100-
NORTHEAST ILLINOIS

CITY           SKY/WX    TMP DP  RH WIND       PRES   REMARKS
CHICAGO-OHARE  SUNNY     34   6  31 VRB3      30.31F
CHICAGO-MIDWAY SUNNY     34   5  29 E10       30.32F WCI  26
AURORA         SUNNY     39   5  24 CALM      30.30F
LANSING*       SUNNY     33   8  34 NE5       30.32F WCI  29
JOLIET*        SUNNY     40   8  27 SE3       30.31S
WAUKEGAN       SUNNY     31  15  52 E9        30.31F WCI  23
DUPAGE AIRPORT SUNNY     37   3  24 NE7       30.29F WCI  32
KANKAKEE*      SUNNY     38  11  32 E5        30.31F WCI  34
WHEELING       SUNNY     33   6  32 VRB6      30.33F WCI  28
MORRIS*        SUNNY     40  10  29 E5        30.29F
ROMEOVILLE*    SUNNY     37   6  27 NE7       30.30F WCI  32
NORTHERLY ISL    N/A     28  12  51 NE7         N/A  WCI  21
$$

LMZ740>746-282100-
SOUTHERN LAKE MICHIGAN

STATION/POSITION SKY/WX   TEMP    WIND        PRES    VSBY  WAVE
                          AIR SEA DIR/SP/G                  HT/PER
                          (F)     (DEG/KT/KT) (MB)    (MI)  (FT/S)
HARRISON CRIB              26      40/  6/  7   N/A
BURNHAM HARBOR             29      10/  5/  8   N/A
CALUMET HARBOR             28      40/  8/ 10 1025.7F
BURNS HARBOR               25      30/  8/ 10 1028.1S
MICHIGAN CITY              27     350/  7/  9   N/A
$$

ILZ025>027-034>036-040-047-049-050-058-095>099-282100-
WEST-CENTRAL ILLINOIS

CITY           SKY/WX    TMP DP  RH WIND       PRES   REMARKS
QUINCY         SUNNY     42  17  36 SE10      30.26F
GALESBURG*     SUNNY     40  13  32 E9        30.28F
MACOMB*        SUNNY     40  13  33 SE8       30.31F
JACKSONVILLE*  SUNNY     40  18  41 SE7       30.30F
PITTSFIELD*    SUNNY     42  19  40 E6        30.28F
$$

ILZ028>032-037-038-041>044-048-051>054-059>061-282100-
CENTRAL ILLINOIS

CITY           SKY/WX    TMP DP  RH WIND       PRES   REMARKS
PONTIAC        SUNNY     38  11  32 CALM      30.31F
BLOOMINGTON    SUNNY     38   9  30 VRB3      30.30F
DECATUR        SUNNY     39  15  37 SE6       30.31F WCI  35
PEORIA         SUNNY     41  11  29 S7        30.30F
LACON*         SUNNY     39   7  26 W3        30.30F
LINCOLN*       SUNNY     40  17  38 S5        30.31F
SPRINGFIELD    SUNNY     41  18  39 S8        30.31F
TAYLORVILLE    SUNNY     36  21  55 E5        30.31F WCI  32
$$

ILZ033-039-045-046-055>057-062-063-282100-
EAST-CENTRAL ILLINOIS

CITY           SKY/WX    TMP DP  RH WIND       PRES   REMARKS
CHAMPAIGN      SUNNY     38  12  34 VRB3      30.30F
DANVILLE*      SUNNY     37  13  38 CALM      30.28S
RANTOUL*       SUNNY     39  13  35 N3        30.30F
MATTOON        SUNNY     37  15  40 VRB5      30.30F WCI  33
PARIS*         SUNNY     38  15  38 E3        30.31F
$$

ILZ079-100>102-282100-
SOUTHWEST ILLINOIS

CITY           SKY/WX    TMP DP  RH WIND       PRES   REMARKS
ALTON          SUNNY     41  10  28 VRB6      30.30
BELLEVILLE     SUNNY     42  19  40 SE7       30.29F
CAHOKIA*       SUNNY     45  21  38 E10       30.29F
SPARTA*        SUNNY     41  21  45 CALM      30.30F
$$

ILZ064>066-069>071-074>076-080>082-084>086-088>090-092>094-282100-
SOUTH-CENTRAL ILLINOIS

CITY           SKY/WX    TMP DP  RH WIND       PRES   REMARKS
CARBONDALE     SUNNY     43  17  35 VRB3      30.30F
CAIRO*         SUNNY     44  25  47 E8        30.29F
EFFINGHAM*     SUNNY     39  11  30 CALM      30.32F
MARION         MOSUNNY   43  16  33 N5        30.31F
MT. VERNON     SUNNY     45  18  33 S5        30.30F
CENTRALIA*     SUNNY     39  15  38 CALM      30.30F
SALEM*         SUNNY     42  17  36 NW7       30.31F
METROPOLIS*    SUNNY     44  21  40 NE3       30.28F
$$

ILZ067-068-072-073-078-083-087-091-282100-
SOUTHEAST ILLINOIS

CITY           SKY/WX    TMP DP  RH WIND       PRES   REMARKS
LAWRENCEVILLE  SUNNY     39  17  41 CALM      30.32F
FLORA*         SUNNY     38  19  47 N3        30.32F
FAIRFIELD*     SUNNY     38  16  39 CALM      30.31F
HARRISBURG*    SUNNY     41  16  35 NE3       30.32F
ROBINSON*      SUNNY     38  19  46 NW6       30.33F WCI  34
CARMI*         SUNNY     39  10  29 CALM      30.32F
$$

ABBREVIATIONS USED IN REMARKS
   TC - TEMPERATURE IN CELSIUS
  WCI - WIND CHILL INDEX
   HX - HEAT INDEX
  VSB - VISIBILITY
$$



USA.gov is the U.S. government's official web portal to all federal, state and local government web resources and services.